Greeley, CO

2:12 AM MST on December 09, 2019 (GMT -0700)
Greeley-Weld County

Weather History for KGXY - November, 2019

Change the Weather History Date:

Saturday, November 16, 2019

  Actual Average Record
Temperature  
Mean Temperature 48 °F -  
Max Temperature 65 °F - 81 °F (2016)
Min Temperature 30 °F - -4 °F (2014)
Degree Days  
Heating Degree Days 18    
Month to date heating degree days 439  
Cooling Degree Days 0    
Month to date cooling degree days 0  
Moisture  
Dew Point 30 °F    
Average Humidity 68    
Maximum Humidity 92    
Minimum Humidity 24    
Precipitation  
Precipitation 0.00 in - 0.59 in (1991)
Snow  
Snow - - - ()
Snow Depth 0.00 in    
Sea Level Pressure  
Sea Level Pressure 30.13 in    
Wind  
Wind Speed 6 mph ()    
Max Wind Speed 31 mph    
Max Gust Speed 39 mph    
Visibility 10.0 miles    
Events Rain    
T = Trace of Precipitation, MM = Missing Value Source: Averaged Metar Reports

Daily Weather History Graph

Daily Weather History Graph

Search for Another Location

Airport or City:

Astronomy

Nov. 16, 2019 Rise Set
Actual Time 6:45 AM MST 4:40 PM MST
Civil Twilight 6:16 AM MST 5:09 PM MST
Nautical Twilight 5:43 AM MST 5:42 PM MST
Astronomical Twilight 5:11 AM MST 6:15 PM MST
Moon 8:15 PM MST (11/16) 10:42 AM MST (11/16)
Length of Visible Light 10h 53m
Length of Day
9h 54m
Waning Gibbous, 82% of the Moon is Illuminated
Nov 16
Waning Gibbous
Nov 19
Last Quarter
Nov 26
New
Dec 3
First Quarter
Dec 11
Full

Hourly Weather History & Observations

Time (MST) Temp. Windchill Dew Point Humidity Pressure Visibility Wind Dir Wind Speed Gust Speed Precip Events Conditions
12:56 AM 33.1 °F 30.0 °F 30.0 °F 89% 30.08 in 10.0 mi Variable 3.5 mph - N/A   Clear
1:56 AM 32.0 °F 26.4 °F 30.0 °F 92% 30.07 in 10.0 mi West 5.8 mph - N/A   Clear
2:56 AM 32.0 °F - 30.0 °F 92% 30.06 in 10.0 mi Calm Calm - N/A   Clear
3:56 AM 33.1 °F - 30.0 °F 89% 30.06 in 10.0 mi Calm Calm - N/A   Clear
4:56 AM 33.1 °F - 30.0 °F 89% 30.07 in 10.0 mi Calm Calm - N/A   Partly Cloudy
5:56 AM 35.1 °F - 32.0 °F 89% 30.08 in 10.0 mi Calm Calm - N/A   Mostly Cloudy
6:56 AM 35.1 °F - 32.0 °F 89% 30.10 in 10.0 mi Calm Calm - N/A   Overcast
7:56 AM 36.0 °F 33.3 °F 33.1 °F 89% 30.11 in 10.0 mi NNW 3.5 mph - N/A   Clear
8:56 AM 39.0 °F 36.8 °F 35.1 °F 86% 30.12 in 10.0 mi SSW 3.5 mph - N/A   Clear
9:56 AM 42.1 °F 40.2 °F 35.1 °F 76% 30.11 in 10.0 mi NW 3.5 mph - N/A   Clear
10:56 AM 53.1 °F - 35.1 °F 50% 30.07 in 10.0 mi SSW 4.6 mph - N/A   Clear
11:56 AM 64.0 °F - 27.0 °F 25% 29.99 in 10.0 mi NW 19.6 mph 25.3 mph N/A   Partly Cloudy
12:05 PM 62.6 °F - 26.6 °F 26% 29.99 in 10.0 mi NNW 20.7 mph 25.3 mph N/A   Partly Cloudy
12:56 PM 63.0 °F - 26.1 °F 25% 29.98 in 10.0 mi NW 19.6 mph - N/A   Clear
1:56 PM 60.1 °F - 28.0 °F 30% 30.00 in 10.0 mi NW 13.8 mph - 0.00 in Rain Light Rain
2:56 PM 57.9 °F - 28.0 °F 32% 30.03 in 10.0 mi NNW 20.7 mph 27.6 mph 0.00 in   Mostly Cloudy
3:56 PM 45.0 °F 35.1 °F 32.0 °F 60% 30.14 in 10.0 mi NNE 31.1 mph 35.7 mph N/A   Overcast
4:56 PM 41.0 °F 30.5 °F 30.9 °F 67% 30.20 in 9.0 mi North 26.5 mph 39.1 mph N/A   Mostly Cloudy
5:56 PM 39.9 °F 28.6 °F 30.0 °F 68% 30.22 in 10.0 mi North 28.8 mph 35.7 mph N/A   Partly Cloudy
7:56 PM 36.0 °F 28.5 °F 28.9 °F 76% 30.33 in 10.0 mi North 10.4 mph - N/A   Scattered Clouds
8:56 PM 37.0 °F 34.5 °F 28.9 °F 73% 30.33 in 10.0 mi North 3.5 mph - N/A   Partly Cloudy
9:56 PM 37.0 °F 33.3 °F 28.9 °F 73% 30.33 in 10.0 mi SSW 4.6 mph - N/A   Mostly Cloudy
10:56 PM 36.0 °F - 28.9 °F 76% 30.30 in 10.0 mi Calm Calm - N/A   Mostly Cloudy
11:56 PM 35.1 °F - 28.9 °F 78% 30.27 in 10.0 mi Calm Calm - N/A   Mostly Cloudy